Location: *
(40.4000°N, 15.1200°E)
Time: 05:58:07
(UTC+00:00)

BREEZE-M DEB (TANK) - Pass Details

Date: 09 April 2020
Orbit: 317 x 11716 km, 49.7° (Epoch: 24 May)

Event Time Altitude Azimuth Distance (km) Brightness Sun altitude
Rises 19:36:06 0° 236° (SW) 4,716 8.4 -22.5°
Reaches altitude 10° 19:40:28 10° 237° (WSW) 2,670 7.1 -23.2°
Enters shadow 19:44:47 52° 243° (WSW) 652 3.7 -23.9°
